^^
Paulen-Weather Station Historical Data
 
Daily Summary for June 20, 2019 Units:  Metric    English   Both
Daily Weekly Monthly Yearly Custom
  Current: High: Low: Average:
Temperature: 13 °C 13 °C 13 °C 13 °C
Dew Point: 12 °C 12 °C 12 °C 12 °C
Humidity: 93% 94% 91% 92%
Wind Speed: 6km/h 16km/h 1km/h 9.6km/h
Wind Gust: 6km/h 19km/h - -
WindNNW - - West
Pressure: 1004 hPa 1004.84 hPa 1003.89 hPa -
Precipitation: 0 mm      
Historical Graphs
 
 
Tabular Data for June 20, 2019
Time Temperature Dew Point Pressure Wind Wind Speed Wind Gust Humidity Rainfall Rate (Hourly) solar
00:04 13 °C 12 °C 1004.64 hPa N 16 km/h 19 km/h 92% 0 mm 0 W/m2
00:09 13 °C 12 °C 1004.54 hPa N 16 km/h 19 km/h 92% 0 mm 0 W/m2
00:14 13 °C 12 °C 1004.57 hPa N 16 km/h 18 km/h 92% 0 mm 0 W/m2
00:19 13 °C 12 °C 1004.57 hPa N 15 km/h 16 km/h 92% 0 mm 0 W/m2
00:24 13 °C 12 °C 1004.44 hPa N 16 km/h 16 km/h 92% 0 mm 0 W/m2
00:29 13 °C 12 °C 1004.37 hPa N 15 km/h 16 km/h 92% 0 mm 0 W/m2
00:34 13 °C 12 °C 1004.4 hPa N 15 km/h 19 km/h 92% 0 mm 0 W/m2
00:39 13 °C 12 °C 1004.4 hPa N 14 km/h 14 km/h 92% 0 mm 0 W/m2
00:44 13 °C 12 °C 1004.54 hPa N 14 km/h 14 km/h 92% 0 mm 0 W/m2
00:49 13 °C 12 °C 1004.57 hPa N 14 km/h 16 km/h 92% 0 mm 0 W/m2
00:54 13 °C 12 °C 1004.67 hPa N 12 km/h 14 km/h 92% 0 mm 0 W/m2
00:59 13 °C 12 °C 1004.74 hPa N 11 km/h 13 km/h 92% 0 mm 0 W/m2
01:04 13 °C 12 °C 1004.84 hPa N 10 km/h 13 km/h 92% 0 mm 0 W/m2
01:09 13 °C 12 °C 1004.84 hPa N 10 km/h 11 km/h 92% 0 mm 0 W/m2
01:14 13 °C 12 °C 1004.81 hPa N 13 km/h 13 km/h 92% 0 mm 0 W/m2
01:19 13 °C 12 °C 1004.64 hPa N 11 km/h 14 km/h 92% 0 mm 0 W/m2
01:24 13 °C 12 °C 1004.64 hPa N 12 km/h 13 km/h 92% 0 mm 0 W/m2
01:29 13 °C 12 °C 1004.61 hPa N 12 km/h 13 km/h 92% 0 mm 0 W/m2
01:34 13 °C 12 °C 1004.57 hPa N 15 km/h 14 km/h 92% 0 mm 0 W/m2
01:39 13 °C 12 °C 1004.5 hPa N 15 km/h 16 km/h 91% 0 mm 0 W/m2
01:44 13 °C 12 °C 1004.47 hPa N 14 km/h 14 km/h 91% 0 mm 0 W/m2
01:49 13 °C 12 °C 1004.47 hPa N 13 km/h 16 km/h 91% 0 mm 0 W/m2
01:54 13 °C 12 °C 1004.47 hPa N 12 km/h 16 km/h 91% 0 mm 0 W/m2
01:59 13 °C 12 °C 1004.44 hPa NNW 11 km/h 13 km/h 91% 0 mm 0 W/m2
02:04 13 °C 12 °C 1004.44 hPa N 8 km/h 11 km/h 91% 0 mm 0 W/m2
02:09 13 °C 12 °C 1004.4 hPa N 8 km/h 10 km/h 92% 0 mm 0 W/m2
02:14 13 °C 12 °C 1004.34 hPa N 11 km/h 11 km/h 92% 0 mm 0 W/m2
02:19 13 °C 12 °C 1004.27 hPa N 11 km/h 14 km/h 92% 0 mm 0 W/m2
02:24 13 °C 12 °C 1004.27 hPa N 9 km/h 13 km/h 92% 0 mm 0 W/m2
02:29 13 °C 12 °C 1004.34 hPa N 10 km/h 11 km/h 92% 0 mm 0 W/m2
02:34 13 °C 12 °C 1004.47 hPa N 7 km/h 11 km/h 92% 0 mm 0 W/m2
02:39 13 °C 12 °C 1004.47 hPa N 7 km/h 8 km/h 92% 0 mm 0 W/m2
02:44 13 °C 12 °C 1004.47 hPa NNW 9 km/h 8 km/h 91% 0 mm 0 W/m2
02:49 13 °C 12 °C 1004.37 hPa NNW 7 km/h 10 km/h 92% 0 mm 0 W/m2
02:54 13 °C 12 °C 1004.37 hPa N 7 km/h 8 km/h 91% 0 mm 0 W/m2
02:59 13 °C 12 °C 1004.5 hPa NNW 6 km/h 8 km/h 91% 0 mm 0 W/m2
03:04 13 °C 12 °C 1004.57 hPa NNW 1 km/h 6 km/h 92% 0 mm 0 W/m2
03:09 13 °C 12 °C 1004.54 hPa NNW 3 km/h 3 km/h 92% 0 mm 0 W/m2
03:14 13 °C 12 °C 1004.4 hPa NNW 3 km/h 5 km/h 92% 0 mm 0 W/m2
03:19 13 °C 12 °C 1004.37 hPa NNW 4 km/h 5 km/h 92% 0 mm 0 W/m2
03:24 13 °C 12 °C 1004.17 hPa NNW 6 km/h 5 km/h 92% 0 mm 0 W/m2
03:29 13 °C 12 °C 1004.1 hPa NNW 6 km/h 6 km/h 92% 0 mm 0 W/m2
03:34 13 °C 12 °C 1004.03 hPa NNW 5 km/h 6 km/h 92% 0 mm 0 W/m2
03:39 13 °C 12 °C 1004.06 hPa NW 8 km/h 8 km/h 93% 0 mm 0 W/m2
03:44 13 °C 12 °C 1003.96 hPa NW 9 km/h 10 km/h 93% 0 mm 0 W/m2
03:49 13 °C 12 °C 1003.89 hPa NW 10 km/h 10 km/h 93% 0 mm 0 W/m2
03:54 13 °C 12 °C 1003.93 hPa NNW 9 km/h 11 km/h 93% 0 mm 0 W/m2
03:59 13 °C 12 °C 1003.96 hPa NW 7 km/h 10 km/h 93% 0 mm 0 W/m2
04:04 13 °C 12 °C 1004 hPa NW 8 km/h 8 km/h 93% 0 mm 0 W/m2
04:09 13 °C 12 °C 1004.03 hPa NW 6 km/h 10 km/h 93% 0 mm 0 W/m2
04:14 13 °C 12 °C 1004 hPa NNW 8 km/h 8 km/h 93% 0 mm 0 W/m2
04:19 13 °C 12 °C 1003.96 hPa NW 6 km/h 10 km/h 94% 0 mm 0 W/m2
04:24 13 °C 12 °C 1003.96 hPa NW 6 km/h 6 km/h 94% 0 mm 0 W/m2
04:29 13 °C 12 °C 1004.06 hPa NW 7 km/h 6 km/h 94% 0 mm 0 W/m2
04:34 13 °C 12 °C 1004.03 hPa NW 7 km/h 8 km/h 94% 0 mm 0 W/m2
04:39 13 °C 12 °C 1004.03 hPa NNW 6 km/h 8 km/h 94% 0 mm 0 W/m2
04:44 13 °C 12 °C 1004.03 hPa NNW 6 km/h 8 km/h 94% 0 mm 0 W/m2
04:49 13 °C 12 °C 1004 hPa NNW 6 km/h 6 km/h 93% 0 mm 0 W/m2
Compliments of Weather Underground - 2 mb